Regional Weather Roundup
Issued by NWS

Home | Current Version | Previous Version | Graphics & Text | Print | Product List | Glossary On
Versions: 1 2 3 4 5 6 7 8 9 10 11 12 13 14 15 16 17 18 19 20 21 22 23 24 25 26 27 28 29 30 31 32 33 34 35 36 37 38 39 40 41 42 43 44 45 46 47 48 49 50
000
ASUS43 KMKX 271700
RWRWI

WISCONSIN REGIONAL WEATHER ROUNDUP
NATIONAL WEATHER SERVICE MILWAUKEE/SULLIVAN WI
1200 PM CDT SAT MAY 27 2017

NOTE: "FAIR" INDICATES FEW OR NO CLOUDS BELOW 12,000 FEET WITH NO
SIGNIFICANT WEATHER AND/OR OBSTRUCTIONS TO VISIBILITY.

WIZ001-002-006>008-014>016-023>028-271800-
NORTHWEST WISCONSIN

CITY           SKY/WX    TMP DP  RH WIND       PRES   REMARKS
SUPERIOR ARPT  NOT AVBL
ASHLAND        PTSUNNY   70  48  45 W9        29.84F
HAYWARD        PTSUNNY   70  45  40 MISG      29.87S
SIREN          MOSUNNY   69  45  42 CALM      29.88S
CUMBERLAND     PTSUNNY   66  43  42 NW5       29.89R
RICE LAKE      PTSUNNY   68  44  41 NW5       29.91R
CHETEK         MOSUNNY   67  47  48 N6        29.89R
LADYSMITH      MOSUNNY   69  48  47 W7        29.89S
EAU CLAIRE     NOT AVBL
MENOMONIE      SUNNY     70  47  42 W5        29.90S
NEW RICHMOND   CLOUDY    69  43  38 CALM      29.90R
OSCEOLA        CLOUDY    71  43  37 W7        29.92R
$$

WIZ003>005-009-010-017-018-271800-
NORTH CENTRAL WISCONSIN

CITY           SKY/WX    TMP DP  RH WIND       PRES   REMARKS
MANITOWISH WTR MOSUNNY   69  49  48 SW13      29.85S
ARBOR VITAE    MOSUNNY   72  51  48 W9        29.85S
WOODRUFF       MOSUNNY   72  51  48 W9        29.85S
RHINELANDER    MOSUNNY   72  49  44 SW9       29.86F
EAGLE RIVER    MOSUNNY   69  44  40 W7G18     29.85R
LAND O LAKES   MOSUNNY   69  46  43 W6        29.86S
PHILLIPS       MOSUNNY   69  51  53 CALM      29.86S
TOMAHAWK       MOSUNNY   69  48  46 W3        29.86S
MEDFORD        SUNNY     68  48  48 W8        29.88S
MERRILL        MOSUNNY   70  54  55 SW8       29.87S
$$

WIZ029-030-035-036-043>047-271800-
CENTRAL WISCONSIN

CITY           SKY/WX    TMP DP  RH WIND       PRES   REMARKS
WAUSAU         MOSUNNY   72  53  51 SW8       29.86S
MOSINEE        MOSUNNY   72  52  49 SW14      29.89S
MARSHFIELD     MOSUNNY   72  52  49 W9        29.88R
STEVENS POINT  SUNNY     71  47  43 W5        29.89R
WAUPACA        SUNNY     74  58  55 S9        29.89R
WAUTOMA        NOT AVBL
WISC RAPIDS    SUNNY     76  51  41 SW8       29.89S
CAMP DOUGLAS   NOT AVBL
$$

WIZ011>013-019>022-031-037>040-048>050-271800-
NORTHEAST WISCONSIN

CITY           SKY/WX    TMP DP  RH WIND       PRES   REMARKS
ANTIGO         MOSUNNY   70  56  61 SW8       29.87F
SHAWANO        MOSUNNY   74  56  53 S8        29.87F
OCONTO         MOSUNNY   71  54  55 S10G16    29.87S
STURGEON BAY   SUNNY     70  53  54 S12       29.89R
GREEN BAY      MOSUNNY   72  56  57 SW10G17   29.89R
MANITOWOC      NOT AVBL
APPLETON       NOT AVBL
CLINTONVILLE   MOSUNNY   73  55  53 S10G16    29.87F
OSHKOSH        SUNNY     71  55  56 SW9       29.89S
$$

WIZ032>034-041-042-053>061-271800-
SOUTHWEST WISCONSIN

CITY           SKY/WX    TMP DP  RH WIND       PRES   REMARKS
LA CROSSE      MOSUNNY   73  58  59 VRB7      29.89S
SPARTA         MOSUNNY   73  55  54 W6        29.90S
VIROQUA        MOSUNNY   70  55  59 CALM      29.91F
BOSCOBEL       MOSUNNY   69  59  70 W6        29.92S
PRAIRIE DU CHI MOSUNNY   67  60  77 S3        29.91S
PLATTEVILLE    CLOUDY    66  62  86 SW5       29.93F
$$

WIZ056-057-062-063-064-067-068-271800-
SOUTH CENTRAL WISCONSIN

CITY           SKY/WX    TMP DP  RH WIND       PRES   REMARKS
REEDSBURG      PTSUNNY   65  61  87 S8        29.92R
BARABOO/DELLS  MOSUNNY   66  59  77 SW9       29.92S
LONE ROCK      NOT AVBL
MINERAL POINT  CLOUDY    66  63  88 S3        29.93F
MADISON        PTSUNNY   69  58  67 W6        29.91S
MIDDLETON      CLOUDY    69  59  69 SW9       29.92S
WATERTOWN      PTSUNNY   70  58  66 S9        29.91S
MONROE         MOSUNNY   68  57  68 SW6       29.93S
JANESVILLE     PTSUNNY   72  59  64 S10       29.92S
$$

WIZ051-052-058>065-066-070>072-271800-
SOUTHEAST WISCONSIN

CITY           SKY/WX    TMP DP  RH WIND       PRES   REMARKS
MILWAUKEE      MOSUNNY   69  55  60 SE9       29.92S
WAUKESHA       MOSUNNY   68  55  64 SE5       29.93R
MILWAUKEE/TIMM MOSUNNY   70  50  49 SE8       29.91F
RACINE         CLOUDY    68  53  58 VRB5      29.94S
KENOSHA        SUNNY     69  55  60 S7        29.92S
FOND DU LAC    PTSUNNY   71  54  54 SW12      29.91R
SHEBOYGAN      SUNNY     69  55  60 S10       29.90R
WEST BEND      MOSUNNY   68  55  64 S7        29.91R
JUNEAU         PTSUNNY   67  57  69 S12       29.93R
$$

LSZ147-162-271800-
LAKE SUPERIOR

STATION/POSITION TIME  TEMP    WIND        PRES    WAVE
                       AIR SEA DIR/SP/G            HT/PER
                 (UTC) (F)     (DEG/KT/KT) (MB)    (FT/S)
W MID LAKE BUOY  1550   42 37  270/  8/ 10 1010.6R   0
DEVILS ISLAND    1600   50     240/ 12/ 13 1010.7F
SAXON HARBOR     1640   67      70/  7/  7 1010.5S
$$

LMZ867-665-643>646-271800-
LAKE MICHIGAN

STATION/POSITION TIME  TEMP    WIND        PRES    WAVE
                       AIR SEA DIR/SP/G            HT/PER
                 (UTC) (F)     (DEG/KT/KT) (MB)    (FT/S)
CHAMBERS ISLAND  1640   69     190/  7/ 12 1011.5R
N MID LAKE BUOY  1550   45 42  190/  8/ 10 1012.9F   0
NORTHPORT PIER   1640   61     150/  7/ 10 1011.9S
KEWAUNEE LAKESHO 1618   54     170/  7/  8 1012.1
SHEBOYGAN LAKESH 1600   51     170/ 12/ 13 1012.5S
PORT WASHINGTON  1630   60     190/  6/  9 1013.9S
ATWATER BUOY     1509   50     160/  6/  6 1013.4R
MILWAUKEE LAKESH 1640   54     130/ 10/ 11   N/A
S MID LAKE BUOY  1550   51 50  260/  2/  2 1013.7S   0
KENOSHA   LAKESH 1600   57     170/  4/  4 1013.2
$$

TC  - TEMPERATURE IN CELSIUS
VSB - VISIBILITY IN STATUTE MILES
WCI - WIND CHILL INDEX
HX  - HEAT INDEX





USA.gov is the U.S. government's official web portal to all federal, state and local government web resources and services.